This demonstration page uses our WeatherBlox Daily Observations layout. Learn more.

Left ArrowRight Arrow

39.51506, -84.39828

Hourly Observations for June 26, 2022

Temp ( °F °C ) Dew Point ( °F °C ) Humidity (%) Winds ( mph kmh ) Pressure ( in mb ) Visibility ( mi km ) Precip ( " mm )
12:15 am 00:15 Partly Cloudy 72 22.1 68 20 88 88 Calm 30.02 1017 10 16 0.00 0.00
12:35 am 00:35 Partly Cloudy 71 21.5 69 20.4 93 93 Calm 30.01 1016 10 16 0.00 0.00
12:55 am 00:55 Partly Cloudy 69 20.8 68 19.8 94 94 Calm 30.01 1016 10 16 0.00 0.00
1:15 am 01:15 Mostly Cloudy 70 21.1 68 20.2 95 95 NNW 3 6 30.01 1016 10 16 0.00 0.00
1:35 am 01:35 Partly Cloudy 70 21.3 68 19.8 91 91 Calm 30.01 1016 10 16 0.00 0.00
1:55 am 01:55 Partly Cloudy 70 21 69 20.5 97 97 NW 3 6 30.01 1016 10 16 0.00 0.00
2:15 am 02:15 Partly Cloudy 70 20.9 69 20.5 98 98 Calm 30.00 1016 10 16 0.00 0.00
2:35 am 02:35 Partly Cloudy 69 20.6 68 20.1 97 97 Calm 30.00 1016 10 16 0.00 0.00
2:55 am 02:55 Partly Cloudy 70 20.9 68 20.1 95 95 Calm 30.00 1016 10 16 0.00 0.00
3:15 am 03:15 Partly Cloudy 69 20.4 68 19.8 96 96 Calm 30.00 1016 10 16 0.00 0.00
3:35 am 03:35 Mostly Cloudy 68 20.2 68 20 99 99 Calm 30.00 1016 10 16 0.00 0.00
3:55 am 03:55 Mostly Cloudy 69 20.5 68 20.2 98 98 Calm 30.01 1016 10 16 0.00 0.00
4:15 am 04:15 Mostly Cloudy 69 20.8 69 20.5 98 98 Calm 30.00 1016 10 16 0.00 0.00
4:35 am 04:35 Mostly Cloudy 70 21 70 21 100 100 Calm 30.01 1016 10 16 0.00 0.00
4:55 am 04:55 Cloudy 70 21.1 69 20.7 98 98 Calm 30.01 1016 10 16 0.00 0.00
5:15 am 05:15 Cloudy 70 21 70 20.9 99 99 Calm 30.00 1016 10 16 0.00 0.00
5:35 am 05:35 Cloudy 70 21.1 70 20.9 99 99 W 6 9 30.00 1016 10 16 0.00 0.00
5:55 am 05:55 Mostly Cloudy 70 21.3 70 21 98 98 Calm 30.00 1016 10 16 0.00 0.00
6:15 am 06:15 Partly Cloudy 71 21.5 70 20.9 96 96 Calm 29.99 1016 10 16 0.00 0.00
6:35 am 06:35 Sunny 72 22 70 21.1 95 95 N 3 6 29.98 1015 10 16 0.00 0.00
6:55 am 06:55 Sunny 73 22.6 71 21.5 94 94 Calm 29.98 1015 10 16 0.00 0.00
7:15 am 07:15 Sunny 74 23.4 71 21.8 91 91 Calm 29.99 1015 10 16 0.00 0.00
7:35 am 07:35 Partly Cloudy 73 22.9 72 22.4 97 97 Calm 30.00 1016 10 16 0.00 0.00
7:55 am 07:55 Partly Cloudy 75 23.8 72 22.4 92 92 SSW 6 9 30.01 1016 10 16 0.00 0.00
8:15 am 08:15 Sunny 76 24.6 72 22.1 86 86 S 6 9 30.00 1016 10 16 0.00 0.00
8:35 am 08:35 Partly Cloudy 77 25.2 71 21.4 80 80 S 5 7 29.99 1016 10 16 0.00 0.00
8:55 am 08:55 Sunny 78 25.8 71 21.7 78 78 SSW 6 9 29.99 1016 10 16 0.00 0.00
9:15 am 09:15 Sunny 80 26.8 69 20.8 70 70 SW 9 15 30.00 1016 10 16 0.00 0.00
9:35 am 09:35 Sunny 81 27 68 19.8 65 65 W 7 11 30.00 1016 10 16 0.00 0.00
9:55 am 09:55 Sunny 81 27.3 68 20 64 64 W 6 9 30.01 1016 10 16 0.00 0.00
10:15 am 10:15 Sunny 81 27.3 67 19.3 62 62 WNW 6 9 30.01 1016 10 16 0.00 0.00
10:35 am 10:35 Partly Cloudy 81 27 65 18.6 60 60 NW 7 11 30.02 1017 10 16 0.00 0.00
10:55 am 10:55 Sunny 80 26.9 66 18.8 61 61 WNW 6 9 30.02 1017 10 16 0.00 0.00
11:15 am 11:15 Sunny 80 26.9 66 19.1 62 62 W 5 7 30.02 1017 10 16 0.00 0.00
11:35 am 11:35 Sunny 81 27.1 66 18.7 60 60 NW 6 9 30.03 1017 10 16 0.00 0.00
11:55 am 11:55 Sunny 81 27.3 67 19.3 62 62 WNW 3 6 30.03 1017 10 16 0.00 0.00
12:15 pm 12:15 Sunny 82 27.8 67 19.6 61 61 SW 5 7 30.03 1017 10 16 0.00 0.00
12:35 pm 12:35 Sunny 84 29 66 19.1 55 55 SSW 9 15 30.03 1017 10 16 0.00 0.00
12:55 pm 12:55 Partly Cloudy 85 29.6 66 18.9 53 53 WSW 12 19 30.03 1017 10 16 0.00 0.00
1:15 pm 13:15 Mostly Cloudy 84 28.9 64 17.9 51 51 WSW 10 17 30.03 1017 10 16 0.00 0.00
1:35 pm 13:35 Cloudy 83 28.5 65 18.5 55 55 SW 10 17 30.04 1017 10 16 0.00 0.00
1:55 pm 13:55 Cloudy 85 29.6 66 19.1 53 53 SW 10 17 30.02 1017 10 16 0.00 0.00
2:15 pm 14:15 Mostly Cloudy 86 30.2 66 18.7 50 50 SW 12 19 30.01 1016 10 16 0.00 0.00
2:35 pm 14:35 Mostly Cloudy 84 28.9 66 18.8 54 54 WSW 14 22 30.01 1016 10 16 0.00 0.00
2:55 pm 14:55 Mostly Cloudy 86 30.2 67 19.7 53 53 WSW 10 17 30.00 1016 10 16 0.00 0.00
3:15 pm 15:15 Mostly Cloudy 84 28.8 67 19.6 58 58 SW 12 19 29.99 1016 10 16 0.00 0.00
3:35 pm 15:35 Cloudy with Heavy Rain 76 24.4 73 22.7 90 90 W 8 13 30.01 1016 5 8 0.04 1.02
3:55 pm 15:55 Cloudy 77 25.2 75 23.8 92 92 W 8 13 30.00 1016 10 16 0.05 1.27
4:15 pm 16:15 Mostly Cloudy 80 26.4 76 24.4 89 89 WSW 10 17 29.99 1016 10 16 0.00 0.00
4:35 pm 16:35 Mostly Cloudy 81 27.4 73 23 77 77 WSW 9 15 29.99 1015 10 16 0.00 0.00
4:55 pm 16:55 Cloudy 81 27 73 22.9 78 78 WSW 10 17 29.99 1016 10 16 0.00 0.00
5:15 pm 17:15 Cloudy 80 26.4 74 23.1 82 82 W 8 13 29.99 1016 10 16 0.00 0.00
5:35 pm 17:35 Mostly Cloudy 80 26.5 74 23.1 82 82 W 9 15 29.98 1015 10 16 0.00 0.00
5:55 pm 17:55 Cloudy 78 25.8 73 22.7 83 83 W 7 11 29.98 1015 10 16 0.00 0.00
6:15 pm 18:15 Cloudy 77 25.1 74 23.4 90 90 W 6 9 29.99 1016 10 16 0.00 0.00
6:35 pm 18:35 Mostly Cloudy 78 25.3 74 23.3 89 89 W 5 7 29.97 1015 10 16 0.00 0.00
6:55 pm 18:55 Partly Cloudy 78 25.6 74 23.5 88 88 W 6 9 29.96 1015 10 16 0.00 0.00
7:15 pm 19:15 Sunny 80 26.5 74 23.1 82 82 WSW 6 9 29.97 1015 10 16 0.00 0.00
7:35 pm 19:35 Partly Cloudy 80 26.4 74 23.3 83 83 WSW 6 9 29.97 1015 10 16 0.00 0.00
7:55 pm 19:55 Mostly Cloudy 78 25.8 74 23.1 85 85 WSW 5 7 29.98 1015 10 16 0.00 0.00
8:15 pm 20:15 Cloudy 78 25.6 74 23.2 87 87 WSW 3 6 29.98 1015 10 16 0.00 0.00
8:35 pm 20:35 Cloudy 78 25.6 74 23.2 87 87 WSW 6 9 29.99 1016 10 16 0.00 0.00
8:55 pm 20:55 Cloudy 77 25.2 74 23.6 91 91 SW 5 7 29.99 1016 10 16 0.00 0.00
9:15 pm 21:15 Mostly Cloudy 76 24.6 74 23.3 93 93 SW 6 9 30.00 1016 10 16 0.00 0.00
9:35 pm 21:35 Cloudy 76 24.2 74 23.5 96 96 W 5 7 30.01 1016 10 16 0.00 0.00
9:55 pm 21:55 Mostly Cloudy 76 24.3 75 23.7 96 96 W 7 11 30.01 1016 10 16 0.00 0.00
10:15 pm 22:15 Partly Cloudy 75 24 75 23.7 98 98 W 7 11 30.03 1017 10 16 0.00 0.00
10:35 pm 22:35 Mostly Cloudy 75 23.9 75 23.7 99 99 W 6 9 30.05 1017 10 16 0.00 0.00
10:55 pm 22:55 Partly Cloudy 75 23.8 73 22.7 94 94 W 5 7 30.05 1017 10 16 0.00 0.00
11:15 pm 23:15 Clear 74 23.6 69 20.8 84 84 WNW 6 9 30.05 1017 10 16 0.00 0.00
11:35 pm 23:35 Clear 74 23.6 65 18.2 72 72 WNW 9 15 30.05 1017 10 16 0.00 0.00
11:55 pm 23:55 Clear 73 23 62 16.4 66 66 NW 9 15 30.07 1018 10 16 0.00 0.00

Powered by AerisWeather